| time (UTC) | temp F | wind direction | speed MPH | gust MPH | rain 1hr in | rain 24hr in | rain mn in | humidity % | barometer mb |
| 20260903201524 | 76 | 236 | 0.0 | 2.0 | 0.00 | 0.00 | 0.00 | 29 | 1008.4 |
| 20260903200008 | 77 | 252 | 0.0 | 4.0 | 0.00 | 0.00 | 0.00 | 29 | 1008.3 |
| 20260903194512 | 75 | 260 | 0.0 | 13.0 | 0.00 | 0.00 | 0.00 | 29 | 1008.5 |
| 20260903193018 | 75 | 269 | 0.0 | 6.0 | 0.00 | 0.00 | 0.00 | 30 | 1008.5 |
| 20260903191526 | 76 | 188 | 0.0 | 0.0 | 0.00 | 0.00 | 0.00 | 29 | 1008.5 |
| 20260903190027 | 75 | 273 | 0.0 | 8.0 | 0.00 | 0.00 | 0.00 | 31 | 1008.5 |
| 20260903184512 | 72 | 225 | 0.0 | 2.0 | 0.00 | 0.00 | 0.00 | 34 | 1008.6 |
| 20260903183017 | 73 | 255 | 0.0 | 8.0 | 0.00 | 0.00 | 0.00 | 32 | 1008.5 |
| 20260903181524 | 72 | 208 | 0.0 | 0.0 | 0.00 | 0.00 | 0.00 | 1008.5 | |
| 20260903180027 | 72 | 244 | 0.0 | 7.0 | 0.00 | 0.00 | 0.00 | 33 | 1008.7 |
| 20260903174530 | 72 | 229 | 0.0 | 9.0 | 0.00 | 0.00 | 0.00 | 33 | 1008.7 |
| 20260903173025 | 72 | 277 | 0.0 | 5.0 | 0.00 | 0.00 | 0.00 | 33 | 1008.8 |
| 20260903171524 | 72 | 246 | 0.0 | 0.0 | 0.00 | 0.00 | 0.00 | 34 | 1008.7 |
| 20260903170030 | 71 | 268 | 0.0 | 0.0 | 0.00 | 0.00 | 0.00 | 36 | 1008.7 |
| 20260903164527 | 69 | 216 | 0.0 | 0.0 | 0.00 | 0.00 | 0.00 | 38 | 1008.6 |
| 20260903163031 | 67 | 267 | 0.0 | 0.0 | 0.00 | 0.00 | 0.00 | 42 | 1008.6 |
| 20260903161522 | 65 | 264 | 0.0 | 0.0 | 0.00 | 0.00 | 0.00 | 44 | 1008.6 |
| 20260903160027 | 64 | 254 | 0.0 | 0.0 | 0.00 | 0.00 | 0.00 | 47 | 1008.7 |
| 20260903154530 | 62 | 250 | 0.0 | 0.0 | 0.00 | 0.00 | 0.00 | 51 | 1008.7 |
| 20260903153029 | 59 | 271 | 0.0 | 0.0 | 0.00 | 0.00 | 0.00 | 54 | 1008.8 |
| 20260903151534 | 57 | 224 | 0.0 | 0.0 | 0.00 | 0.00 | 0.00 | 57 | 1008.8 |
| 20260903150040 | 55 | 182 | 0.0 | 0.0 | 0.00 | 0.00 | 0.00 | 59 | 1008.8 |
| 20260903144537 | 54 | 217 | 0.0 | 0.0 | 0.00 | 0.00 | 0.00 | 61 | 1008.6 |
| 20260903143041 | 53 | 191 | 0.0 | 0.0 | 0.00 | 0.00 | 0.00 | 63 | 1008.7 |
| 20260903141536 | 51 | 207 | 0.0 | 0.0 | 0.00 | 0.00 | 0.00 | 66 | 1008.4 |
| 20260903140023 | 50 | 197 | 0.0 | 0.0 | 0.00 | 0.00 | 0.00 | 67 | 1008.4 |
| 20260903134543 | 50 | 152 | 0.0 | 0.0 | 0.00 | 0.00 | 0.00 | 67 | 1008.3 |
| 20260903133034 | 50 | 209 | 0.0 | 0.0 | 0.00 | 0.00 | 0.00 | 67 | 1008.3 |
| 20260903131514 | 49 | 207 | 0.0 | 0.0 | 0.00 | 0.00 | 0.00 | 68 | 1007.9 |
| 20260903130019 | 48 | 275 | 0.0 | 0.0 | 0.00 | 0.00 | 0.00 | 69 | 1007.7 |
| 20260903124526 | 48 | 207 | 0.0 | 0.0 | 0.00 | 0.00 | 0.00 | 69 | 1007.4 |
| 20260903123020 | 48 | 210 | 0.0 | 0.0 | 0.00 | 0.00 | 0.00 | 69 | 1007.2 |
| 20260903121520 | 49 | 205 | 0.0 | 0.0 | 0.00 | 0.00 | 0.00 | 68 | 1007.2 |
| 20260903120020 | 50 | 246 | 0.0 | 0.0 | 0.00 | 0.00 | 0.00 | 67 | 1007.3 |
| 20260903114531 | 51 | 264 | 0.0 | 0.0 | 0.00 | 0.00 | 0.00 | 65 | 1007.4 |
| 20260903113028 | 52 | 200 | 0.0 | 0.0 | 0.00 | 0.00 | 0.00 | 64 | 1007.5 |
| 20260903111510 | 51 | 207 | 0.0 | 0.0 | 0.00 | 0.00 | 0.00 | 64 | 1007.7 |
| 20260903110016 | 50 | 221 | 0.0 | 0.0 | 0.00 | 0.00 | 0.00 | 67 | 1007.7 |
| 20260903104523 | 50 | 198 | 0.0 | 0.0 | 0.00 | 0.00 | 0.00 | 65 | 1007.7 |
| 20260903103030 | 51 | 248 | 0.0 | 0.0 | 0.00 | 0.00 | 0.00 | 63 | 1007.5 |
| 20260903101534 | 52 | 221 | 0.0 | 0.0 | 0.00 | 0.00 | 0.00 | 62 | 1007.6 |
| 20260903100016 | 53 | 220 | 0.0 | 0.0 | 0.00 | 0.00 | 0.00 | 60 | 1007.3 |
| 20260903094523 | 53 | 217 | 0.0 | 0.0 | 0.00 | 0.00 | 0.00 | 60 | 1007.5 |
| 20260903093040 | 53 | 218 | 0.0 | 0.0 | 0.00 | 0.00 | 0.00 | 60 | 1007.2 |
| 20260903091531 | 52 | 217 | 0.0 | 0.0 | 0.00 | 0.00 | 0.00 | 61 | 1007.1 |
| 20260903090035 | 52 | 221 | 0.0 | 0.0 | 0.00 | 0.00 | 0.00 | 60 | 1007.0 |
| 20260903084518 | 51 | 231 | 0.0 | 0.0 | 0.00 | 0.00 | 0.00 | 61 | 1007.1 |
| 20260903083027 | 52 | 215 | 0.0 | 0.0 | 0.00 | 0.00 | 0.00 | 61 | 1006.7 |
| 20260903081539 | 52 | 261 | 0.0 | 0.0 | 0.00 | 0.00 | 0.00 | 61 | 1006.9 |
| 20260903080030 | 52 | 151 | 0.0 | 0.0 | 0.00 | 0.00 | 0.00 | 62 | 1007.0 |
| 20260903074534 | 53 | 141 | 0.0 | 0.0 | 0.00 | 0.00 | 0.00 | 60 | 1007.0 |
| 20260903073030 | 55 | 160 | 0.0 | 0.0 | 0.00 | 0.00 | 0.00 | 58 | 1006.9 |
| 20260903071505 | 56 | 202 | 0.0 | 0.0 | 0.00 | 0.00 | 0.00 | 56 | 1006.7 |
| 20260903070007 | 57 | 258 | 0.0 | 0.0 | 0.00 | 0.00 | 0.00 | 54 | 1006.6 |
| 20260903064511 | 57 | 243 | 0.0 | 0.0 | 0.00 | 0.00 | 0.00 | 56 | 1006.8 |
| 20260903063020 | 57 | 214 | 0.0 | 0.0 | 0.00 | 0.00 | 0.00 | 55 | 1007.0 |
| 20260903061527 | 57 | 232 | 0.0 | 0.0 | 0.00 | 0.00 | 0.00 | 55 | 1007.1 |
| 20260903060008 | 58 | 251 | 0.0 | 0.0 | 0.00 | 0.00 | 0.00 | 53 | 1007.2 |
| 20260903054513 | 59 | 252 | 0.0 | 0.0 | 0.00 | 0.00 | 0.00 | 52 | 1007.1 |
| 20260903053019 | 58 | 266 | 0.0 | 0.0 | 0.00 | 0.00 | 0.00 | 53 | 1007.2 |
| 20260903051527 | 58 | 257 | 0.0 | 0.0 | 0.00 | 0.00 | 0.00 | 54 | 1007.3 |
| 20260903050031 | 59 | 247 | 0.0 | 0.0 | 0.00 | 0.00 | 0.00 | 54 | 1007.6 |
| 20260903044510 | 58 | 220 | 0.0 | 0.0 | 0.00 | 0.00 | 0.00 | 57 | 1007.8 |
| 20260903043018 | 57 | 229 | 0.0 | 0.0 | 0.00 | 0.00 | 0.00 | 59 | 1008.3 |
| 20260903041521 | 57 | 259 | 0.0 | 0.0 | 0.00 | 0.00 | 0.00 | 60 | 1008.4 |
| 20260903040026 | 57 | 248 | 0.0 | 0.0 | 0.00 | 0.00 | 0.00 | 58 | 1008.2 |
| 20260903034534 | 56 | 208 | 0.0 | 0.0 | 0.00 | 0.00 | 0.00 | 60 | 1008.3 |
| 20260903033012 | 56 | 229 | 0.0 | 0.0 | 0.00 | 0.00 | 0.00 | 58 | 1008.0 |
| 20260903031529 | 56 | 213 | 0.0 | 0.0 | 0.00 | 0.00 | 0.00 | 57 | 1007.8 |
| 20260903030024 | 56 | 240 | 0.0 | 0.0 | 0.00 | 0.00 | 0.00 | 56 | 1007.6 |
| 20260903024529 | 56 | 266 | 0.0 | 0.0 | 0.00 | 0.00 | 0.00 | 58 | 1007.7 |
| 20260903023014 | 57 | 266 | 0.0 | 0.0 | 0.00 | 0.00 | 0.00 | 55 | 1007.7 |
| 20260903021534 | 58 | 252 | 0.0 | 0.0 | 0.00 | 0.00 | 0.00 | 54 | 1008.1 |
| 20260903020023 | 58 | 274 | 0.0 | 0.0 | 0.00 | 0.00 | 0.00 | 56 | 1008.0 |
| 20260903014533 | 60 | 259 | 0.0 | 0.0 | 0.00 | 0.00 | 0.00 | 55 | 1007.7 |
| 20260903013032 | 61 | 271 | 0.0 | 0.0 | 0.00 | 0.00 | 0.00 | 53 | 1008.2 |
| 20260903011512 | 61 | 244 | 0.0 | 0.0 | 0.00 | 0.00 | 0.00 | 54 | 1008.5 |
| 20260903010023 | 61 | 262 | 0.0 | 0.0 | 0.00 | 0.00 | 0.00 | 56 | 1008.0 |
| 20260903004532 | 62 | 290 | 0.0 | 0.0 | 0.00 | 0.00 | 0.00 | 56 | 1007.6 |
| 20260903003034 | 62 | 259 | 0.0 | 2.0 | 0.00 | 0.00 | 0.00 | 55 | 1006.2 |
| 20260903001534 | 63 | 262 | 0.0 | 5.0 | 0.00 | 0.00 | 0.00 | 53 | 1005.7 |
| 20260903000021 | 64 | 293 | 0.0 | 0.0 | 0.00 | 0.00 | 0.00 | 46 | 1005.8 |
| 20260902234525 | 65 | 255 | 3.0 | 15.0 | 0.00 | 0.00 | 0.00 | 45 | 1006.4 |
| 20260902233029 | 64 | 255 | 0.0 | 2.0 | 0.00 | 0.00 | 0.00 | 48 | 1006.8 |
| 20260902231550 | 65 | 203 | 0.0 | 0.0 | 0.00 | 0.00 | 0.00 | 48 | 1006.4 |
| 20260902230036 | 66 | 196 | 0.0 | 0.0 | 0.00 | 0.00 | 0.00 | 50 | 1005.6 |
| 20260902224525 | 66 | 203 | 0.0 | 2.0 | 0.00 | 0.00 | 0.00 | 50 | 1004.9 |
| 20260902223028 | 72 | 214 | 0.0 | 11.0 | 0.00 | 0.00 | 0.00 | 43 | 1003.8 |
| 20260902221508 | 83 | 158 | 0.0 | 0.0 | 0.00 | 0.00 | 0.00 | 28 | 1002.6 |
| 20260902220020 | 83 | 153 | 0.0 | 0.0 | 0.00 | 0.00 | 0.00 | 28 | 1003.2 |
| 20260902214520 | 83 | 262 | 0.0 | 0.0 | 0.00 | 0.00 | 0.00 | 27 | 1003.4 |
| 20260902213027 | 85 | 250 | 0.0 | 0.0 | 0.00 | 0.00 | 0.00 | 25 | 1003.7 |
| 20260902211508 | 85 | 170 | 0.0 | 0.0 | 0.00 | 0.00 | 0.00 | 25 | 1004.0 |
| 20260902210015 | 84 | 138 | 0.0 | 0.0 | 0.00 | 0.00 | 0.00 | 25 | 1004.3 |
| 20260902204518 | 83 | 162 | 0.0 | 0.0 | 0.00 | 0.00 | 0.00 | 26 | 1004.7 |
| 20260902203024 | 82 | 227 | 0.0 | 0.0 | 0.00 | 0.00 | 0.00 | 28 | 1005.0 |